| time (UTC) | temp F | wind direction | speed knots | gust knots | rain 1hr in | rain 24hr in | rain mn in | humidity % | barometer mb |
| 20260507214042 | 67 | 62 | 3.5 | 3.5 | 0.00 | 0.00 | 0.00 | 33 | 1006.5 |
| 20260507213539 | 67 | 112 | 0.9 | 7.8 | 0.00 | 0.00 | 0.00 | 33 | 1006.3 |
| 20260507213036 | 65 | 281 | 3.5 | 6.1 | 0.00 | 0.00 | 0.00 | 34 | 1006.3 |
| 20260507212532 | 67 | 76 | 3.5 | 7.8 | 0.00 | 0.00 | 0.00 | 35 | 1006.2 |
| 20260507212029 | 68 | 42 | 2.6 | 3.5 | 0.00 | 0.00 | 0.00 | 35 | 1006.2 |
| 20260507211526 | 66 | 329 | 2.6 | 5.2 | 0.00 | 0.00 | 0.00 | 35 | 1006.2 |
| 20260507211022 | 66 | 332 | 1.7 | 6.1 | 0.00 | 0.00 | 0.00 | 34 | 1006.2 |
| 20260507210519 | 66 | 306 | 3.5 | 5.2 | 0.00 | 0.00 | 0.00 | 34 | 1006.3 |
| 20260507210016 | 66 | 319 | 1.7 | 3.5 | 0.00 | 0.00 | 0.00 | 34 | 1006.1 |
| 20260507205513 | 65 | 356 | 1.7 | 11.3 | 0.00 | 0.00 | 0.00 | 34 | 1006.2 |
| 20260507205009 | 66 | 261 | 1.7 | 9.6 | 0.00 | 0.00 | 0.00 | 36 | 1006.1 |
| 20260507204505 | 66 | 62 | 3.5 | 11.3 | 0.00 | 0.00 | 0.00 | 33 | 1006.3 |
| 20260507204003 | 67 | 339 | 3.5 | 6.1 | 0.00 | 0.00 | 0.00 | 33 | 1006.3 |
| 20260507203501 | 69 | 296 | 1.7 | 3.5 | 0.00 | 0.00 | 0.00 | 31 | 1006.1 |
| 20260507202957 | 68 | 246 | 5.2 | 7.8 | 0.00 | 0.00 | 0.00 | 32 | 1006.2 |
| 20260507202453 | 68 | 285 | 5.2 | 7.8 | 0.00 | 0.00 | 0.00 | 33 | 1006.6 |
| 20260507201949 | 68 | 274 | 1.7 | 7.8 | 0.00 | 0.00 | 0.00 | 32 | 1006.2 |
| 20260507201444 | 69 | 335 | 5.2 | 9.6 | 0.00 | 0.00 | 0.00 | 34 | 1006.6 |
| 20260507200941 | 68 | 331 | 3.5 | 8.7 | 0.00 | 0.00 | 0.00 | 32 | 1006.4 |
| 20260507200436 | 68 | 89 | 1.7 | 5.2 | 0.00 | 0.00 | 0.00 | 35 | 1006.2 |
| 20260507195933 | 68 | 312 | 1.7 | 6.1 | 0.00 | 0.00 | 0.00 | 33 | 1006.2 |
| 20260507195431 | 68 | 325 | 2.6 | 5.2 | 0.00 | 0.00 | 0.00 | 34 | 1006.4 |
| 20260507194928 | 68 | 354 | 1.7 | 7.0 | 0.00 | 0.00 | 0.00 | 33 | 1006.4 |
| 20260507194424 | 67 | 76 | 1.7 | 7.8 | 0.00 | 0.00 | 0.00 | 35 | 1006.4 |
| 20260507193920 | 67 | 77 | 3.5 | 7.8 | 0.00 | 0.00 | 0.00 | 34 | 1006.8 |
| 20260507193418 | 68 | 93 | 3.5 | 8.7 | 0.00 | 0.00 | 0.00 | 34 | 1006.5 |
| 20260507192914 | 66 | 225 | 1.7 | 2.6 | 0.00 | 0.00 | 0.00 | 34 | 1006.6 |
| 20260507192410 | 65 | 87 | 1.7 | 5.2 | 0.00 | 0.00 | 0.00 | 35 | 1006.5 |
| 20260507191907 | 68 | 191 | 1.7 | 7.0 | 0.00 | 0.00 | 0.00 | 34 | 1006.5 |
| 20260507191403 | 67 | 65 | 2.6 | 5.2 | 0.00 | 0.00 | 0.00 | 35 | 1006.6 |
| 20260507190859 | 67 | 198 | 1.7 | 7.0 | 0.00 | 0.00 | 0.00 | 34 | 1006.7 |
| 20260507190358 | 68 | 87 | 4.3 | 7.8 | 0.00 | 0.00 | 0.00 | 34 | 1006.7 |
| 20260507185856 | 67 | 83 | 5.2 | 7.8 | 0.00 | 0.00 | 0.00 | 37 | 1006.6 |
| 20260507185353 | 68 | 99 | 2.6 | 3.5 | 0.00 | 0.00 | 0.00 | 37 | 1006.4 |
| 20260507184850 | 68 | 70 | 1.7 | 6.1 | 0.00 | 0.00 | 0.00 | 34 | 1006.6 |
| 20260507184348 | 66 | 78 | 2.6 | 7.0 | 0.00 | 0.00 | 0.00 | 36 | 1006.7 |
| 20260507183844 | 67 | 70 | 0.9 | 2.6 | 0.00 | 0.00 | 0.00 | 39 | 1006.8 |
| 20260507183342 | 68 | 301 | 0.9 | 2.6 | 0.00 | 0.00 | 0.00 | 36 | 1006.9 |
| 20260507182839 | 68 | 101 | 4.3 | 11.3 | 0.00 | 0.00 | 0.00 | 34 | 1006.8 |
| 20260507182335 | 67 | 341 | 0.9 | 3.5 | 0.00 | 0.00 | 0.00 | 41 | 1006.5 |
| 20260507181831 | 67 | 335 | 2.6 | 3.5 | 0.00 | 0.00 | 0.00 | 33 | 1006.8 |
| 20260507181327 | 67 | 333 | 4.3 | 8.7 | 0.00 | 0.00 | 0.00 | 34 | 1006.8 |
| 20260507180824 | 68 | 150 | 3.5 | 8.7 | 0.00 | 0.00 | 0.00 | 34 | 1006.8 |
| 20260507180321 | 66 | 346 | 1.7 | 2.6 | 0.00 | 0.00 | 0.00 | 39 | 1006.8 |
| 20260507175817 | 66 | 89 | 4.3 | 6.1 | 0.00 | 0.00 | 0.00 | 37 | 1006.9 |
| 20260507175314 | 67 | 187 | 2.6 | 6.1 | 0.00 | 0.00 | 0.00 | 37 | 1007.1 |
| 20260507174811 | 67 | 350 | 1.7 | 5.2 | 0.00 | 0.00 | 0.00 | 40 | 1007.2 |
| 20260507174309 | 68 | 243 | 1.7 | 3.5 | 0.00 | 0.00 | 0.00 | 37 | 1007.2 |
| 20260507173806 | 68 | 317 | 3.5 | 3.5 | 0.00 | 0.00 | 0.00 | 35 | 1007.3 |
| 20260507173303 | 66 | 39 | 1.7 | 2.6 | 0.00 | 0.00 | 0.00 | 37 | 1007.4 |
| 20260507172759 | 67 | 108 | 5.2 | 9.6 | 0.00 | 0.00 | 0.00 | 33 | 1007.1 |
| 20260507172256 | 65 | 66 | 3.5 | 5.2 | 0.00 | 0.00 | 0.00 | 38 | 1007.4 |
| 20260507171752 | 66 | 3 | 2.6 | 5.2 | 0.00 | 0.00 | 0.00 | 37 | 1007.7 |
| 20260507171249 | 65 | 294 | 3.5 | 7.0 | 0.00 | 0.00 | 0.00 | 34 | 1007.5 |
| 20260507170746 | 66 | 339 | 2.6 | 6.1 | 0.00 | 0.00 | 0.00 | 37 | 1007.6 |
| 20260507170243 | 65 | 106 | 3.5 | 5.2 | 0.00 | 0.00 | 0.00 | 35 | 1008.0 |
| 20260507165738 | 65 | 295 | 3.5 | 7.0 | 0.00 | 0.00 | 0.00 | 37 | 1008.1 |
| 20260507165235 | 65 | 78 | 1.7 | 7.0 | 0.00 | 0.00 | 0.00 | 38 | 1008.0 |
| 20260507164731 | 65 | 82 | 0.9 | 3.5 | 0.00 | 0.00 | 0.00 | 39 | 1008.2 |
| 20260507164228 | 64 | 248 | 1.7 | 6.1 | 0.00 | 0.00 | 0.00 | 42 | 1008.1 |
| 20260507163725 | 64 | 308 | 3.5 | 5.2 | 0.00 | 0.00 | 0.00 | 40 | 1008.2 |
| 20260507163223 | 64 | 260 | 1.7 | 9.6 | 0.00 | 0.00 | 0.00 | 45 | 1008.6 |
| 20260507162719 | 64 | 342 | 2.6 | 3.5 | 0.00 | 0.00 | 0.00 | 44 | 1008.4 |
| 20260507162215 | 63 | 68 | 0.9 | 5.2 | 0.00 | 0.00 | 0.00 | 43 | 1008.4 |
| 20260507161711 | 62 | 70 | 1.7 | 3.5 | 0.00 | 0.00 | 0.00 | 44 | 1008.4 |
| 20260507161208 | 62 | 340 | 1.7 | 2.6 | 0.00 | 0.00 | 0.00 | 44 | 1008.6 |
| 20260507160704 | 64 | 20 | 0.0 | 2.6 | 0.00 | 0.00 | 0.00 | 48 | 1008.7 |
| 20260507160201 | 64 | 305 | 1.7 | 2.6 | 0.00 | 0.00 | 0.00 | 47 | 1008.6 |
| 20260507155656 | 62 | 299 | 1.7 | 3.5 | 0.00 | 0.00 | 0.00 | 46 | 1008.9 |
| 20260507155153 | 62 | 74 | 0.9 | 1.7 | 0.00 | 0.00 | 0.00 | 51 | 1008.9 |
| 20260507154649 | 60 | 83 | 0.9 | 5.2 | 0.00 | 0.00 | 0.00 | 49 | 1009.0 |
| 20260507154148 | 61 | 85 | 0.9 | 5.2 | 0.00 | 0.00 | 0.00 | 51 | 1009.1 |
| 20260507153644 | 61 | 323 | 3.5 | 6.1 | 0.00 | 0.00 | 0.00 | 50 | 1009.2 |
| 20260507153140 | 61 | 89 | 2.6 | 8.7 | 0.00 | 0.00 | 0.00 | 48 | 1009.4 |
| 20260507152637 | 62 | 242 | 2.6 | 7.0 | 0.00 | 0.00 | 0.00 | 51 | 1009.2 |
| 20260507152132 | 60 | 251 | 1.7 | 3.5 | 0.00 | 0.00 | 0.00 | 46 | 1009.2 |
| 20260507151629 | 59 | 239 | 0.0 | 2.6 | 0.00 | 0.00 | 0.00 | 46 | 1009.4 |
| 20260507151126 | 59 | 281 | 3.5 | 5.2 | 0.00 | 0.00 | 0.00 | 49 | 1009.6 |
| 20260507150623 | 61 | 304 | 0.9 | 5.2 | 0.00 | 0.00 | 0.00 | 46 | 1009.8 |
| 20260507150120 | 61 | 269 | 0.9 | 0.9 | 0.00 | 0.00 | 0.00 | 50 | 1009.4 |
| 20260507145615 | 61 | 320 | 0.9 | 2.6 | 0.00 | 0.00 | 0.00 | 50 | 1009.8 |
| 20260507145113 | 60 | 222 | 0.9 | 1.7 | 0.00 | 0.00 | 0.00 | 49 | 1010.2 |
| 20260507144613 | 59 | 186 | 0.9 | 3.5 | 0.00 | 0.00 | 0.00 | 48 | 1010.1 |
| 20260507144112 | 58 | 233 | 0.0 | 0.9 | 0.00 | 0.00 | 0.00 | 52 | 1010.2 |
| 20260507143608 | 57 | 323 | 0.0 | 2.6 | 0.00 | 0.00 | 0.00 | 56 | 1010.4 |
| 20260507143106 | 56 | 114 | 0.0 | 2.6 | 0.00 | 0.00 | 0.00 | 56 | 1010.6 |
| 20260507142601 | 55 | 79 | 1.7 | 5.2 | 0.00 | 0.00 | 0.00 | 54 | 1010.5 |
| 20260507142058 | 56 | 98 | 1.7 | 5.2 | 0.00 | 0.00 | 0.00 | 53 | 1010.5 |
| 20260507141554 | 57 | 90 | 3.5 | 3.5 | 0.00 | 0.00 | 0.00 | 54 | 1010.6 |
| 20260507141051 | 56 | 128 | 1.7 | 2.6 | 0.00 | 0.00 | 0.00 | 51 | 1010.9 |
| 20260507140548 | 56 | 40 | 0.9 | 0.9 | 0.00 | 0.00 | 0.00 | 51 | 1010.7 |
| 20260507140045 | 55 | 297 | 1.7 | 1.7 | 0.00 | 0.00 | 0.00 | 57 | 1011.2 |
| 20260507135542 | 55 | 248 | 0.9 | 0.9 | 0.00 | 0.00 | 0.00 | 55 | 1011.0 |
| 20260507135039 | 53 | 95 | 0.0 | 0.0 | 0.00 | 0.00 | 0.00 | 57 | 1011.3 |
| 20260507134536 | 53 | 88 | 0.9 | 1.7 | 0.00 | 0.00 | 0.00 | 56 | 1011.0 |
| 20260507134031 | 53 | 320 | 0.9 | 1.7 | 0.00 | 0.00 | 0.00 | 56 | 1011.1 |
| 20260507133528 | 54 | 71 | 1.7 | 2.6 | 0.00 | 0.00 | 0.00 | 58 | 1011.3 |
| 20260507133026 | 54 | 70 | 0.9 | 0.9 | 0.00 | 0.00 | 0.00 | 60 | 1011.1 |
| 20260507132523 | 54 | 16 | 0.0 | 0.9 | 0.00 | 0.00 | 0.00 | 59 | 1011.2 |
| 20260507132019 | 53 | 80 | 0.9 | 0.9 | 0.00 | 0.00 | 0.00 | 61 | 1011.3 |
| 20260507131516 | 53 | 0 | 0.0 | 0.9 | 0.00 | 0.00 | 0.00 | 62 | 1011.4 |
| 20260507131013 | 53 | 326 | 0.9 | 1.7 | 0.00 | 0.00 | 0.00 | 64 | 1011.4 |
| 20260507130510 | 53 | 323 | 0.0 | 1.7 | 0.00 | 0.00 | 0.00 | 66 | 1011.7 |
| 20260507130008 | 53 | 80 | 0.0 | 0.0 | 0.00 | 0.00 | 0.00 | 66 | 1011.7 |
| 20260507125506 | 53 | 79 | 0.0 | 0.9 | 0.00 | 0.00 | 0.00 | 63 | 1011.8 |
| 20260507125003 | 52 | 75 | 0.0 | 0.9 | 0.00 | 0.00 | 0.00 | 67 | 1011.6 |
| 20260507124459 | 52 | 358 | 0.0 | 0.0 | 0.00 | 0.00 | 0.00 | 66 | 1011.7 |
| 20260507123957 | 52 | 73 | 0.0 | 0.9 | 0.00 | 0.00 | 0.00 | 67 | 1011.7 |
| 20260507123455 | 52 | 77 | 0.0 | 1.7 | 0.00 | 0.00 | 0.00 | 66 | 1011.7 |
| 20260507122951 | 52 | 327 | 0.9 | 0.9 | 0.00 | 0.00 | 0.00 | 65 | 1011.5 |
| 20260507122446 | 51 | 319 | 0.0 | 0.9 | 0.00 | 0.00 | 0.00 | 71 | 1011.9 |
| 20260507121943 | 51 | 294 | 0.0 | 0.9 | 0.00 | 0.00 | 0.00 | 71 | 1011.4 |
| 20260507121438 | 51 | 299 | 0.0 | 0.0 | 0.00 | 0.00 | 0.00 | 70 | 1011.6 |
| 20260507120935 | 51 | 290 | 0.0 | 0.0 | 0.00 | 0.00 | 0.00 | 72 | 1011.4 |
| 20260507120431 | 51 | 254 | 0.0 | 0.0 | 0.00 | 0.00 | 0.00 | 71 | 1011.6 |
| 20260507115928 | 51 | 296 | 0.9 | 0.9 | 0.00 | 0.00 | 0.00 | 76 | 1011.6 |
| 20260507115424 | 51 | 308 | 0.0 | 0.0 | 0.00 | 0.00 | 0.00 | 74 | 1011.5 |
| 20260507114920 | 51 | 315 | 0.0 | 0.9 | 0.00 | 0.00 | 0.00 | 76 | 1011.0 |
| 20260507114417 | 51 | 291 | 0.0 | 0.0 | 0.00 | 0.00 | 0.00 | 75 | 1011.5 |
| 20260507113914 | 51 | 323 | 0.0 | 0.0 | 0.00 | 0.00 | 0.00 | 77 | 1011.4 |
| 20260507113411 | 51 | 325 | 0.0 | 0.0 | 0.00 | 0.00 | 0.00 | 80 | 1011.2 |
| 20260507112908 | 51 | 326 | 0.0 | 0.0 | 0.00 | 0.00 | 0.00 | 79 | 1011.3 |
| 20260507112405 | 51 | 30 | 0.0 | 0.9 | 0.00 | 0.00 | 0.00 | 79 | 1011.3 |
| 20260507111904 | 51 | 9 | 0.0 | 0.0 | 0.00 | 0.00 | 0.00 | 77 | 1011.2 |
| 20260507111359 | 51 | 344 | 0.0 | 0.0 | 0.00 | 0.00 | 0.00 | 79 | 1011.2 |
| 20260507110855 | 50 | 345 | 0.0 | 0.0 | 0.00 | 0.00 | 0.00 | 77 | 1011.3 |
| 20260507110352 | 51 | 343 | 0.0 | 0.0 | 0.00 | 0.00 | 0.00 | 83 | 1011.0 |
| 20260507105849 | 51 | 339 | 0.0 | 0.0 | 0.00 | 0.00 | 0.00 | 83 | 1010.9 |
| 20260507105345 | 51 | 84 | 0.0 | 0.0 | 0.00 | 0.00 | 0.00 | 82 | 1010.8 |
| 20260507104842 | 51 | 84 | 0.0 | 0.9 | 0.00 | 0.00 | 0.00 | 83 | 1010.9 |
| 20260507104339 | 51 | 83 | 0.9 | 1.7 | 0.00 | 0.00 | 0.00 | 85 | 1010.6 |
| 20260507103835 | 51 | 82 | 0.0 | 0.0 | 0.00 | 0.00 | 0.00 | 83 | 1010.5 |
| 20260507103332 | 51 | 82 | 0.0 | 0.9 | 0.00 | 0.00 | 0.00 | 82 | 1010.7 |
| 20260507102828 | 51 | 82 | 0.0 | 0.9 | 0.00 | 0.00 | 0.00 | 79 | 1010.4 |
| 20260507102325 | 51 | 45 | 0.0 | 0.0 | 0.00 | 0.00 | 0.00 | 79 | 1010.5 |
| 20260507101822 | 51 | 34 | 0.0 | 0.0 | 0.00 | 0.00 | 0.00 | 79 | 1010.3 |
| 20260507101321 | 51 | 56 | 0.0 | 1.7 | 0.00 | 0.00 | 0.00 | 79 | 1010.2 |
| 20260507100819 | 51 | 73 | 0.9 | 1.7 | 0.00 | 0.00 | 0.00 | 80 | 1009.7 |
| 20260507100317 | 51 | 78 | 0.9 | 1.7 | 0.00 | 0.00 | 0.00 | 81 | 1010.2 |
| 20260507095815 | 52 | 101 | 0.9 | 1.7 | 0.00 | 0.00 | 0.00 | 79 | 1010.1 |
| 20260507095311 | 51 | 66 | 0.0 | 0.9 | 0.00 | 0.00 | 0.00 | 82 | 1010.2 |
| 20260507094808 | 51 | 86 | 0.9 | 1.7 | 0.00 | 0.00 | 0.00 | 85 | 1010.3 |
| 20260507094305 | 51 | 84 | 0.0 | 0.0 | 0.00 | 0.00 | 0.00 | 89 | 1010.4 |
| 20260507093802 | 52 | 84 | 0.0 | 0.9 | 0.00 | 0.00 | 0.00 | 90 | 1010.3 |
| 20260507093300 | 52 | 84 | 0.0 | 0.0 | 0.00 | 0.00 | 0.00 | 90 | 1010.2 |
| 20260507092758 | 52 | 84 | 0.0 | 0.0 | 0.00 | 0.00 | 0.00 | 89 | 1010.4 |
| 20260507092254 | 52 | 84 | 0.0 | 0.0 | 0.00 | 0.00 | 0.00 | 88 | 1009.9 |
| 20260507091750 | 52 | 84 | 0.0 | 0.0 | 0.00 | 0.00 | 0.00 | 86 | 1009.9 |
| 20260507091247 | 52 | 84 | 0.0 | 0.0 | 0.00 | 0.00 | 0.00 | 88 | 1010.1 |
| 20260507090747 | 52 | 84 | 0.0 | 0.0 | 0.00 | 0.00 | 0.00 | 88 | 1009.9 |
| 20260507090244 | 52 | 84 | 0.0 | 0.0 | 0.00 | 0.00 | 0.00 | 88 | 1010.1 |
| 20260507085741 | 51 | 84 | 0.0 | 0.9 | 0.00 | 0.00 | 0.00 | 87 | 1010.1 |
| 20260507085238 | 51 | 80 | 0.0 | 0.0 | 0.00 | 0.00 | 0.00 | 91 | 1010.1 |
| 20260507084735 | 51 | 79 | 0.9 | 0.9 | 0.00 | 0.00 | 0.00 | 91 | 1010.4 |
| 20260507084231 | 52 | 69 | 0.0 | 0.9 | 0.00 | 0.00 | 0.00 | 89 | 1010.1 |
| 20260507083729 | 51 | 89 | 0.0 | 0.9 | 0.00 | 0.00 | 0.00 | 89 | 1010.2 |
| 20260507083225 | 51 | 302 | 0.0 | 0.0 | 0.00 | 0.00 | 0.00 | 91 | 1010.2 |
| 20260507082722 | 51 | 45 | 0.0 | 0.0 | 0.00 | 0.00 | 0.00 | 91 | 1009.9 |
| 20260507082217 | 51 | 45 | 0.0 | 0.0 | 0.00 | 0.00 | 0.00 | 91 | 1009.8 |
| 20260507081715 | 51 | 262 | 0.0 | 0.0 | 0.00 | 0.00 | 0.00 | 91 | 1010.1 |
| 20260507081211 | 51 | 305 | 0.0 | 0.0 | 0.00 | 0.00 | 0.00 | 91 | 1009.9 |
| 20260507080707 | 51 | 305 | 0.0 | 0.0 | 0.00 | 0.00 | 0.00 | 91 | 1009.9 |
| 20260507080204 | 51 | 305 | 0.0 | 0.0 | 0.00 | 0.00 | 0.00 | 91 | 1009.6 |
| 20260507075659 | 51 | 296 | 0.9 | 0.9 | 0.00 | 0.00 | 0.00 | 91 | 1009.8 |
| 20260507075155 | 51 | 278 | 0.0 | 0.0 | 0.00 | 0.00 | 0.00 | 91 | 1009.9 |
| 20260507074652 | 51 | 292 | 0.0 | 0.0 | 0.00 | 0.00 | 0.00 | 91 | 1009.9 |
| 20260507074150 | 51 | 249 | 0.0 | 0.9 | 0.00 | 0.00 | 0.00 | 91 | 1009.8 |
| 20260507073647 | 51 | 292 | 0.0 | 0.9 | 0.00 | 0.00 | 0.00 | 91 | 1009.8 |
| 20260507073142 | 51 | 27 | 0.0 | 0.0 | 0.00 | 0.00 | 0.00 | 91 | 1009.3 |
| 20260507072641 | 51 | 27 | 0.0 | 0.0 | 0.00 | 0.00 | 0.00 | 91 | 1009.6 |
| 20260507072138 | 52 | 30 | 0.0 | 0.9 | 0.00 | 0.00 | 0.00 | 91 | 1009.8 |
| 20260507071635 | 52 | 299 | 0.0 | 0.9 | 0.00 | 0.00 | 0.00 | 91 | 1009.9 |
| 20260507071132 | 52 | 327 | 0.0 | 0.0 | 0.00 | 0.00 | 0.00 | 90 | 1009.5 |
| 20260507070629 | 52 | 308 | 0.0 | 0.0 | 0.00 | 0.00 | 0.00 | 90 | 1009.6 |
| 20260507070126 | 52 | 307 | 0.0 | 0.0 | 0.00 | 0.00 | 0.00 | 90 | 1009.7 |
| 20260507065622 | 52 | 307 | 0.0 | 0.0 | 0.00 | 0.00 | 0.00 | 89 | 1009.8 |
| 20260507065119 | 52 | 307 | 0.0 | 0.0 | 0.00 | 0.00 | 0.00 | 88 | 1009.8 |
| 20260507064617 | 52 | 307 | 0.0 | 0.0 | 0.00 | 0.00 | 0.00 | 88 | 1009.6 |
| 20260507064115 | 52 | 307 | 0.0 | 0.0 | 0.00 | 0.00 | 0.00 | 89 | 1009.8 |
| 20260507063612 | 52 | 307 | 0.0 | 0.0 | 0.00 | 0.00 | 0.00 | 89 | 1009.9 |
| 20260507063109 | 52 | 307 | 0.0 | 0.0 | 0.00 | 0.00 | 0.00 | 89 | 1010.1 |
| 20260507062606 | 52 | 307 | 0.0 | 0.0 | 0.00 | 0.00 | 0.00 | 90 | 1010.3 |
| 20260507062103 | 52 | 307 | 0.0 | 0.0 | 0.00 | 0.00 | 0.00 | 89 | 1010.2 |
| 20260507061601 | 52 | 307 | 0.0 | 0.9 | 0.00 | 0.00 | 0.00 | 89 | 1010.1 |
| 20260507061059 | 53 | 301 | 0.9 | 0.9 | 0.00 | 0.00 | 0.00 | 89 | 1010.1 |
| 20260507060557 | 53 | 289 | 0.0 | 0.9 | 0.00 | 0.00 | 0.00 | 87 | 1010.3 |
| 20260507060053 | 53 | 292 | 0.0 | 0.9 | 0.00 | 0.00 | 0.00 | 87 | 1010.3 |
| 20260507055548 | 53 | 300 | 0.0 | 0.9 | 0.00 | 0.00 | 0.00 | 85 | 1010.4 |
| 20260507055045 | 53 | 215 | 0.0 | 0.0 | 0.00 | 0.00 | 0.00 | 83 | 1010.3 |
| 20260507054541 | 53 | 284 | 0.0 | 0.0 | 0.00 | 0.00 | 0.00 | 87 | 1010.4 |
| 20260507054038 | 53 | 303 | 0.0 | 0.0 | 0.00 | 0.00 | 0.00 | 87 | 1010.5 |
| 20260507053536 | 53 | 303 | 0.0 | 0.9 | 0.00 | 0.00 | 0.00 | 86 | 1010.4 |
| 20260507053034 | 53 | 302 | 0.0 | 0.9 | 0.00 | 0.00 | 0.00 | 86 | 1010.5 |
| 20260507052531 | 53 | 310 | 0.0 | 0.0 | 0.00 | 0.00 | 0.00 | 85 | 1010.5 |
| 20260507052028 | 53 | 71 | 0.0 | 0.0 | 0.00 | 0.00 | 0.00 | 81 | 1010.5 |
| 20260507051526 | 53 | 71 | 0.0 | 0.9 | 0.00 | 0.00 | 0.00 | 81 | 1010.3 |
| 20260507051023 | 53 | 63 | 0.9 | 0.9 | 0.00 | 0.00 | 0.00 | 81 | 1010.4 |
| 20260507050519 | 53 | 10 | 0.0 | 0.9 | 0.00 | 0.00 | 0.00 | 81 | 1010.4 |
| 20260507050015 | 53 | 357 | 0.0 | 0.9 | 0.00 | 0.00 | 0.00 | 82 | 1010.3 |
| 20260507045512 | 53 | 72 | 1.7 | 2.6 | 0.00 | 0.00 | 0.00 | 81 | 1010.5 |
| 20260507045010 | 53 | 109 | 0.0 | 1.7 | 0.00 | 0.00 | 0.00 | 82 | 1010.3 |
| 20260507044506 | 53 | 81 | 1.7 | 2.6 | 0.00 | 0.00 | 0.00 | 81 | 1009.9 |
| 20260507044003 | 53 | 82 | 0.9 | 1.7 | 0.00 | 0.00 | 0.00 | 82 | 1010.1 |
| 20260507043459 | 53 | 305 | 0.0 | 0.9 | 0.00 | 0.00 | 0.00 | 84 | 1010.1 |
| 20260507042955 | 53 | 74 | 0.9 | 1.7 | 0.00 | 0.00 | 0.00 | 85 | 1010.3 |
| 20260507042452 | 54 | 96 | 0.0 | 0.0 | 0.00 | 0.00 | 0.00 | 87 | 1010.1 |
| 20260507041947 | 54 | 74 | 0.9 | 1.7 | 0.00 | 0.00 | 0.00 | 86 | 1010.2 |
| 20260507041445 | 54 | 273 | 0.0 | 0.0 | 0.00 | 0.00 | 0.00 | 85 | 1010.6 |
| 20260507040942 | 54 | 346 | 0.0 | 0.0 | 0.00 | 0.00 | 0.00 | 85 | 1010.4 |
| 20260507040437 | 54 | 86 | 1.7 | 2.6 | 0.00 | 0.00 | 0.00 | 85 | 1010.3 |
| 20260507035933 | 54 | 100 | 2.6 | 3.5 | 0.00 | 0.11 | 0.11 | 85 | 1010.2 |
| 20260507035430 | 54 | 271 | 1.7 | 2.6 | 0.00 | 0.11 | 0.11 | 85 | 1010.5 |
| 20260507034927 | 54 | 70 | 1.7 | 2.6 | 0.00 | 0.11 | 0.11 | 87 | 1010.2 |
| 20260507034424 | 54 | 357 | 0.0 | 0.9 | 0.00 | 0.11 | 0.11 | 86 | 1009.9 |
| 20260507033922 | 54 | 307 | 0.9 | 0.9 | 0.00 | 0.11 | 0.11 | 85 | 1009.6 |
| 20260507033420 | 54 | 305 | 0.0 | 0.9 | 0.00 | 0.11 | 0.11 | 85 | 1010.2 |
| 20260507032916 | 54 | 293 | 0.9 | 0.9 | 0.00 | 0.11 | 0.11 | 86 | 1010.5 |
| 20260507032413 | 54 | 320 | 0.9 | 0.9 | 0.00 | 0.11 | 0.11 | 88 | 1010.6 |
| 20260507031909 | 54 | 80 | 0.9 | 2.6 | 0.00 | 0.11 | 0.11 | 88 | 1010.3 |
| 20260507031406 | 55 | 236 | 0.0 | 0.0 | 0.00 | 0.11 | 0.11 | 87 | 1009.7 |
| 20260507030903 | 55 | 235 | 0.0 | 1.7 | 0.00 | 0.11 | 0.11 | 85 | 1009.6 |
| 20260507030400 | 55 | 314 | 0.9 | 1.7 | 0.00 | 0.11 | 0.11 | 85 | 1010.1 |
| 20260507025857 | 55 | 89 | 0.9 | 3.5 | 0.00 | 0.11 | 0.11 | 84 | 1010.1 |
| 20260507025354 | 55 | 63 | 1.7 | 1.7 | 0.00 | 0.11 | 0.11 | 83 | 1010.2 |
| 20260507024852 | 55 | 317 | 1.7 | 2.6 | 0.00 | 0.11 | 0.11 | 83 | 1010.2 |
| 20260507024349 | 55 | 113 | 0.9 | 1.7 | 0.00 | 0.11 | 0.11 | 84 | 1010.4 |
| 20260507023845 | 56 | 73 | 1.7 | 2.6 | 0.00 | 0.11 | 0.11 | 84 | 1009.9 |
| 20260507023342 | 56 | 79 | 1.7 | 3.5 | 0.00 | 0.11 | 0.11 | 84 | 1009.7 |
| 20260507022839 | 56 | 32 | 1.7 | 3.5 | 0.00 | 0.11 | 0.11 | 83 | 1010.1 |
| 20260507022335 | 56 | 105 | 1.7 | 2.6 | 0.00 | 0.11 | 0.11 | 83 | 1009.7 |
| 20260507021831 | 56 | 91 | 0.9 | 2.6 | 0.00 | 0.11 | 0.11 | 83 | 1009.7 |
| 20260507021327 | 56 | 346 | 0.0 | 0.9 | 0.00 | 0.11 | 0.11 | 83 | 1009.5 |
| 20260507020825 | 56 | 6 | 0.0 | 0.9 | 0.00 | 0.11 | 0.11 | 83 | 1009.3 |
| 20260507020321 | 56 | 87 | 0.9 | 1.7 | 0.00 | 0.11 | 0.11 | 82 | 1009.4 |
| 20260507015819 | 56 | 86 | 2.6 | 2.6 | 0.00 | 0.11 | 0.11 | 82 | 1009.3 |
| 20260507015316 | 56 | 76 | 1.7 | 2.6 | 0.00 | 0.11 | 0.11 | 82 | 1009.0 |
| 20260507014813 | 56 | 210 | 0.0 | 2.6 | 0.00 | 0.11 | 0.11 | 82 | 1009.1 |
| 20260507014310 | 57 | 91 | 1.7 | 1.7 | 0.00 | 0.11 | 0.11 | 82 | 1009.1 |
| 20260507013806 | 57 | 67 | 1.7 | 3.5 | 0.00 | 0.11 | 0.11 | 82 | 1009.5 |
| 20260507013303 | 57 | 72 | 2.6 | 2.6 | 0.00 | 0.11 | 0.11 | 82 | 1009.2 |
| 20260507012801 | 57 | 75 | 1.7 | 1.7 | 0.00 | 0.11 | 0.11 | 82 | 1009.0 |
| 20260507012256 | 57 | 84 | 0.0 | 0.9 | 0.00 | 0.11 | 0.11 | 83 | 1009.0 |
| 20260507011754 | 57 | 68 | 2.6 | 3.5 | 0.00 | 0.11 | 0.11 | 82 | 1009.0 |
| 20260507011250 | 57 | 93 | 0.9 | 1.7 | 0.00 | 0.11 | 0.11 | 82 | 1009.0 |
| 20260507010750 | 57 | 100 | 0.0 | 1.7 | 0.00 | 0.11 | 0.11 | 82 | 1009.0 |
| 20260507010246 | 57 | 71 | 1.7 | 1.7 | 0.00 | 0.11 | 0.11 | 81 | 1008.9 |
| 20260507005744 | 57 | 326 | 0.0 | 1.7 | 0.00 | 0.11 | 0.11 | 83 | 1009.1 |
| 20260507005240 | 58 | 75 | 0.0 | 0.9 | 0.00 | 0.11 | 0.11 | 82 | 1008.8 |
| 20260507004736 | 58 | 73 | 0.0 | 0.9 | 0.00 | 0.11 | 0.11 | 81 | 1008.4 |
| 20260507004235 | 58 | 241 | 0.9 | 1.7 | 0.00 | 0.11 | 0.11 | 82 | 1008.4 |
| 20260507003730 | 58 | 66 | 0.9 | 2.6 | 0.00 | 0.11 | 0.11 | 81 | 1008.8 |
| 20260507003225 | 58 | 71 | 0.9 | 1.7 | 0.00 | 0.11 | 0.11 | 82 | 1008.9 |
| 20260507002722 | 58 | 286 | 0.9 | 1.7 | 0.00 | 0.11 | 0.11 | 81 | 1008.9 |
| 20260507002218 | 58 | 316 | 0.9 | 0.9 | 0.00 | 0.11 | 0.11 | 81 | 1009.2 |
| 20260507001715 | 58 | 62 | 0.0 | 0.9 | 0.00 | 0.11 | 0.11 | 81 | 1009.1 |
| 20260507001212 | 58 | 276 | 0.0 | 0.0 | 0.00 | 0.11 | 0.11 | 80 | 1009.0 |
| 20260507000708 | 58 | 53 | 0.0 | 2.6 | 0.00 | 0.11 | 0.11 | 80 | 1008.9 |
| 20260507000205 | 59 | 67 | 0.9 | 1.7 | 0.00 | 0.11 | 0.11 | 80 | 1008.9 |
| 20260506235701 | 59 | 12 | 0.0 | 2.6 | 0.00 | 0.11 | 0.11 | 80 | 1008.9 |
| 20260506235157 | 59 | 195 | 0.0 | 0.9 | 0.00 | 0.11 | 0.11 | 79 | 1008.8 |
| 20260506234654 | 59 | 72 | 1.7 | 1.7 | 0.00 | 0.11 | 0.11 | 80 | 1008.7 |
| 20260506234151 | 59 | 75 | 0.9 | 2.6 | 0.00 | 0.11 | 0.11 | 80 | 1008.5 |
| 20260506233648 | 60 | 75 | 1.7 | 1.7 | 0.00 | 0.11 | 0.11 | 80 | 1008.3 |
| 20260506233145 | 60 | 81 | 0.0 | 2.6 | 0.00 | 0.11 | 0.11 | 80 | 1008.6 |
| 20260506232641 | 60 | 82 | 0.0 | 0.0 | 0.00 | 0.11 | 0.11 | 80 | 1008.7 |
| 20260506232137 | 60 | 82 | 0.9 | 1.7 | 0.00 | 0.11 | 0.11 | 79 | 1008.5 |
| 20260506231634 | 61 | 75 | 0.0 | 1.7 | 0.00 | 0.11 | 0.11 | 81 | 1008.2 |
| 20260506231132 | 61 | 47 | 1.7 | 1.7 | 0.00 | 0.11 | 0.11 | 79 | 1008.1 |
| 20260506230629 | 61 | 263 | 0.0 | 0.0 | 0.00 | 0.11 | 0.11 | 80 | 1008.1 |
| 20260506230126 | 61 | 262 | 0.0 | 0.9 | 0.00 | 0.11 | 0.11 | 81 | 1007.9 |
| 20260506225622 | 62 | 320 | 0.9 | 1.7 | 0.00 | 0.11 | 0.11 | 80 | 1007.5 |
| 20260506225119 | 62 | 217 | 0.9 | 2.6 | 0.00 | 0.11 | 0.11 | 78 | 1007.8 |
| 20260506224616 | 62 | 329 | 0.0 | 0.9 | 0.00 | 0.11 | 0.11 | 79 | 1007.8 |
| 20260506224112 | 62 | 257 | 1.7 | 3.5 | 0.00 | 0.11 | 0.11 | 78 | 1007.6 |
| 20260506223608 | 62 | 251 | 0.0 | 2.6 | 0.00 | 0.11 | 0.11 | 78 | 1007.7 |
| 20260506223104 | 62 | 213 | 0.0 | 0.0 | 0.00 | 0.11 | 0.11 | 78 | 1007.7 |
| 20260506222602 | 62 | 327 | 1.7 | 2.6 | 0.00 | 0.11 | 0.11 | 79 | 1007.8 |
| 20260506222058 | 63 | 87 | 0.9 | 1.7 | 0.00 | 0.11 | 0.11 | 79 | 1007.6 |
| 20260506221556 | 63 | 3 | 0.0 | 1.7 | 0.00 | 0.11 | 0.11 | 77 | 1007.4 |
| 20260506221054 | 63 | 344 | 2.6 | 3.5 | 0.00 | 0.11 | 0.11 | 77 | 1007.4 |
| 20260506220549 | 62 | 214 | 0.9 | 5.2 | 0.00 | 0.11 | 0.11 | 78 | 1007.4 |
| 20260506220045 | 63 | 155 | 0.0 | 5.2 | 0.00 | 0.11 | 0.11 | 78 | 1007.1 |
| 20260506215542 | 63 | 96 | 0.0 | 1.7 | 0.00 | 0.11 | 0.11 | 80 | 1007.2 |
| 20260506215038 | 63 | 51 | 1.7 | 6.1 | 0.00 | 0.11 | 0.11 | 79 | 1007.4 |
| 20260506214535 | 63 | 27 | 0.9 | 3.5 | 0.00 | 0.11 | 0.11 | 81 | 1007.1 |